Flag for U.S.A. Weather past 2 weeks in Oakland, California, U.S.A.

Now
56 °F

Passing clouds.


Feels Like: 55 °F
Forecast: 54 / 67 °F
Wind: 6 mph from Northwest

Location: Metro Oakland International Airport

Current Time: Mar 27, 2015 at 3:58:38 AM

Latest Report: Mar 27, 2015 at 2:53 AM


Visibility: 10 mi

Pressure: 30.09 "Hg

Humidity: 90%

Dew point: 53 °F

Location of OaklandLocation

Historic Weather in Oakland — Graph

°F

Oakland temperature yesterday

Maximum temperature yesterday: 78 °F (at 3:53 PM)
Minimum temperature yesterday: 51 °F (at 3:53 AM)
Average temperature yesterday: 62 °F

Past Weeks' High & Low Weather Summary

 TemperatureHumidityPressure
High78 °F (Mar 14, 3:53 PM)97% (Mar 12, 6:53 AM)30.32 "Hg (Mar 12, 6:53 AM)
Low47 °F (Mar 12, 6:53 AM)36% (Mar 19, 1:53 PM)29.96 "Hg (Mar 14, 5:53 PM)
Average60 °F72%30.13 "Hg
* Reported Mar 12 2:53 AM — Mar 27 2:53 AM, Oakland, Weather by CustomWeather, © 2015

Note: Actual official high and low records may vary slightly from our data, if they occured in-between our weather recording intervals... More about our weather records

Advertising

Oakland weather history for previous 24 hours

 ConditionsComfort  
Time TempWeatherWind HumidityBarometerVisibility
2:53 AM
Fri, Mar 27
56 °FPassing clouds.6 mph90%30.09 "Hg10 mi
1:53 AM57 °FClear.7 mph87%30.10 "Hg10 mi
12:53 AM57 °FClear.3 mph90%30.10 "Hg10 mi
11:53 PM
Thu, Mar 26
62 °FClear.3 mph75%30.10 "Hg10 mi
10:53 PM62 °FClear.3 mph73%30.10 "Hg10 mi
9:53 PM63 °FClear.3 mph78%30.09 "Hg10 mi
8:53 PM64 °FClear.7 mph73%30.07 "Hg10 mi
7:53 PM67 °FSunny.10 mph66%30.06 "Hg10 mi
6:53 PM70 °FSunny.9 mph61%30.05 "Hg10 mi
5:53 PM76 °FSunny.10 mph48%30.05 "Hg10 mi
4:53 PM78 °FSunny.12 mph43%30.05 "Hg10 mi
3:53 PM78 °FSunny.12 mph45%30.06 "Hg10 mi
2:53 PM73 °FSunny.8 mph51%30.08 "Hg10 mi
1:53 PM70 °FSunny.7 mph51%30.11 "Hg10 mi
12:53 PM69 °FSunny.6 mph51%30.14 "Hg10 mi
11:53 AM66 °FSunny.5 mph63%30.16 "Hg10 mi
10:53 AM62 °FSunny.6 mph75%30.17 "Hg10 mi
9:53 AM62 °FSunny.6 mph73%30.18 "Hg10 mi
8:53 AM60 °FSunny.3 mph80%30.17 "Hg10 mi
7:53 AM53 °FPassing clouds.No wind93%30.16 "Hg10 mi
6:53 AM51 °FPassing clouds.3 mph89%30.14 "Hg10 mi
5:53 AM51 °FClear.No wind89%30.14 "Hg10 mi
4:53 AM51 °FClear.5 mph89%30.14 "Hg10 mi
3:53 AM51 °FPassing clouds.No wind89%30.14 "Hg10 mi
Weather by CustomWeather, © 2015

See weather overviewHow to use our weather pages